Погода в Ике

Погода в Ике : погода сейчас, прогноз погоды и архив. Всё, что Вы хотите узнать о погоде в Ике!

Хотите узнать прогноз погоды в Ике? Тогда Вам сюда: Погода в Ике

Поиск расширенной информации на нашем сайте:

Другие новости

Новости СМИ2

Главная страница сайта

Новости сайта

03.07.2017

Напоминаем, что на нашем специализированном сайте Метеоцентр.Азия вы можете получить высокодетализированные автоматические прогнозы погоды по пунктам России, СНГ и мира в авиационном формате (включающие направление и скорость ветра, видимость, явления погоды, количество и форму облачности, нижнюю и верхнюю границу облачности).


Погода в Ике - сегодня

Время (UTC), дата Ветер
(°,м/с) 
Видим.   Явления Облачность Т
(°С)
Тd
(°С)
f(%) Тe
(°С)
Pmin
(гПа)
dP
(гПа)
Po
(мм)
O2
(г/м3)
Тmin Tmax R s Состояние
почвы
06 18.09.17 160 (Ю) 20000 м    9/9 600 м 
[Sc]
+7.7 -4.1 43 +9  1017.3  -1.1  731  287           
09 18.09.17 110 (В) 20000 м    10/10 600 м 
[Sc]
+8 -5.7 37 +8  1016.1  -1.2  730  286           
15 18.09.17 160 (Ю) 10 км    9/9 600 м 
[Sc]
+4.4 -3.4 57 +5  1014.1  -1  728  289           
18 18.09.17 тихо ()   10 км  слаб. ливневой дождь  10/10 600 м кучево-дожд. 
[Cb cap]
+3.5 -1.8 68 +4  1012.6  -1.5  727  290           
21 18.09.17 тихо ()   10 км  в посл. час ливневой дождь  10/10 600 м кучево-дожд. 
[Cb cap]
+0.9 +0.4 96 +1  1011.2  -1.7  726  291           
00 19.09.17 070 (В) 20000 м  в посл. час ливневой дождь  10/10 100 м 
[Frnb]
+1.3 +0.6 95 +1  1010.4  -0.8  725  291  +0.9      влажная 
03 19.09.17 090 (В) 10 км  слаб. морось  10/10 100 м 
[Frnb]
+2.4 +1.4 93 +3  1010.3  0.1  726  290           
06 19.09.17 090 (В) 20000 м  {морось}  10/10 100 м 
[Frnb]
+3.7 +2.5 92 +5  1010.2  726  288           
09 19.09.17 090 (В) 20000 м    10/10 100 м 
[Frnb]
+4.1 +2.6 90 +5  1010.9  0.9  726  288           
12 19.09.17 тихо ()   10 км  слаб. ливневой дождь{морось}  10/10 100 м кучево-дожд. 
[Cb cap]
+3.6 +3.1 97 +4  1011.8  0.7  727  288    +4.4  0.5     
15 19.09.17 тихо ()   4000 м  {ливн. осадки}  10/10 100 м кучево-дожд. 
[Cb cap]
+3.2 +2.7 97 +3  1011.9  0.1  719  286           
18 19.09.17 тихо ()   10 км  {ливн. осадки}  10/10 100 м кучево-дожд. 
[Cb cap]
+3.2 +2.7 97 +3  1012  0.1  727  289           
21 19.09.17 тихо ()   10 км  слаб. ливневой дождь  10/10 100 м кучево-дожд. 
[Cb cap]
+2.8 +2.5 98 +3  1011.6  -0.4  727  289           
00 20.09.17 090 (В) 20000 м  в посл. час ливневой дождь  10/10 100 м кучево-дожд. 
[Cb cap]
+2.8 +2.3 97 +4  1012.3  0.7  727  290  +2.5    0.9    влажная 
03 20.09.17 070 (В) 20000 м    9/9 300 м 
[Sc]
+4.2 +2.2 87 +5  1013.3  1.1  713  282           
06 20.09.17 тихо ()   20000 м    8/8 300 м кучево-дожд. 
[Cb cap]
+7 +1.9 70 +7  1012.6  -0.2  713  280           
09 20.09.17 270 (З) 20000 м    9/9 600 м 
[Sc]
+7.3 +1.4 66 +8  1012.6  728  285           
12 20.09.17 340 (С) 10 км    9/9 600 м 
[Sc]
+6.9 -3.8 46 +7  1012.9  0.1  728  286    +8.5       
15 20.09.17 тихо ()   10 км    9/9 600 м 
[Sc]
+4.4 -2 63 +4  1014.2  0.9  729  289           
18 20.09.17 340 (С) 10 км    8/8 600 м 
[Sc]
+2.4 -3.4 65 +2  1014.3  -0.2  728  291           
21 20.09.17 тихо ()   10 км    9/9 600 м 
[Sc]
-0.2 -2.6 84 -0  1014.9  0.1  728  294           
00 21.09.17 тихо ()   20000 м    8/8 600 м 
[Sc]
+1.1 -2.1 79 +1  1014.8  0.2  729  293  -0.9         
03 21.09.17 340 (С) 20000 м    9/9 600 м 
[Sc]
+3.6 -2.7 63 +4  1014  -0.4  728  290           
06 21.09.17 340 (С) 20000 м    8/8 600 м 
[Sc]
+6.3 -2.9 52 +7  1012.2  -1.3  727  287           
09 21.09.17 340 (С) 20000 м    8/8 600 м 
[Sc]
+7.1 -3.5 47 +8  1010.4  -1.5  726  286           
Время (UTC), дата Ветер
(°,м/с) 
Видим.   Явления Облачность Т
(°С)
Тd
(°С)
f(%) Тe
(°С)
Pmin
(гПа)
dP
(гПа)
Po
(мм)
O2
(г/м3)
Тmin Tmax R s Состояние
почвы

Для получения пояснительной информации подведите курсор к названию столбца.

ПОГОДА в Ике - архив

Всё, что Вы хотите узнать о погоде в Ике - удобно и подробно!

Выберите нужную дату (начиная с 1 января 2015* года) и нажмите кнопку "Найти".
Будут отображены архивные сводки погоды по пункту Ика, начиная с указанной даты.


Отображать данные в формате CSV (для использования в таблицах Excel)


Внимание! Наш архив погоды предназначен исключительно для личного некоммерческого использования в познавательных целях. Если Вам необходимы официальные справки о состоянии погоды (для производственных, юридических, коммерческих и т.п. целей), обращайтесь в органы Росгидромета.

*Примечание: данная дата относится к архиву по метеостанциям СССР (Россия, СНГ, Балтия).
Архив по метеостанциям Зарубежной Европы и Азии (кроме Китая) хранится 10 дней, по другим регионам земного шара (Китай, Африка, Америка, Австралия, Океания) - 1 день.

Ика - район местоположения метеостанции


Название, широта, долгота, высота метеостанции:
Ика 59.3°ш. 106.2°д. 352 м над ур. моря [Российская Федерация]

Дополнительная информация

В oтличие oт бoльшинства пoгoдных сайтoв мы публикуем пoдрoбную метеoинфoрмацию в детальнoм прoфессиoнальнoм фoрмате.

Характеристики температуры и влажнoсти вoздуха измеряются на высoте 2 м в тени вдали oт зданий и деревьев.
Скoрoсть ветра измеряется на высoте 10 м (на урoвне рoста челoвека скoрoсть ветра ниже в 1.5-2 раза). Если метеoстанция нахoдится в гoрoде или в лесу, тo скoрoсть ветра занижена на 2-4 м/с пo сравнению с oткрытым местoм. Скoрoсть ветра над акватoриями крупных рек и oзёр, а также на вершинах хoлмoв на 2-5 м/с выше, чем в oбычных услoвиях.
Атмoсфернoе давление в разных тoчках местнoсти мoжет значительнo oтличаться oт давления на метеoстанции, в зависимoсти oт услoвий рельефа (при пoдъёме на 10 м давление пoнижается примернo на 1 мм рт.ст.).